Starlink 5335

operational
NORAD ID: 56508 Int'l Des: 2023-065 Owner: SPXS Country: US Constellation: starlink
LEOCIRCULAR

About Starlink 5335

Description loading...

Live Position

Loading 3D Globe...

Upcoming Passes

Altitude History

Altitude vs Time

uPlot chart will show altitude changes over time

Two-Line Element Set

1 56508U 23065F 25352.53291585 -.00000215 00000-0 -81015-6 0 9996
2 56508 43.0043 291.5858 0001180 271.0047 89.0660 15.02534544144415
Epoch: Dec 18, 2025 • Age: 30 hours

Current Status

Altitude 569.1 km
Velocity 7.58 km/s
Sub-Earth Point -36.51°S, 149.76°E
Launch Date May 14, 2023
Age 2.6 years
Type internet

Technical Details

Classification Payload
Mass 305.00 kg
Dry Mass 290.00 kg
Total Mass 305.00 kg
Length 0.20 m
Diameter 2.80 m
Span 9.00 m
Shape Box + pan
Manufacturer SPXS
Bus Type Starlink
Phase Status In Orbit
Owner/State SPXS/US

Large Constellations

Loading constellations...